�N����,�����b,���ԉ��x,���Ԏ��x,��󒲎�,����,�����W
2003/8/1,0:00:00,24.3 ,68.5 ,24.6 ,24.9 ,23.8 
2003/8/1,0:15:00,24.3 ,68.3 ,24.5 ,24.9 ,23.7 
2003/8/1,0:30:00,24.2 ,68.8 ,24.5 ,24.9 ,23.7 
2003/8/1,0:45:00,24.1 ,68.5 ,24.4 ,24.9 ,23.6 
2003/8/1,1:00:00,24.1 ,68.7 ,24.3 ,24.9 ,23.5 
2003/8/1,1:15:00,24.0 ,68.6 ,24.3 ,24.9 ,23.5 
2003/8/1,1:30:00,23.9 ,68.8 ,24.2 ,24.9 ,23.4 
2003/8/1,1:45:00,23.9 ,69.0 ,24.2 ,24.9 ,23.3 
2003/8/1,2:00:00,23.8 ,68.8 ,24.1 ,24.9 ,23.3 
2003/8/1,2:15:00,23.7 ,68.8 ,24.1 ,23.7 ,23.2 
2003/8/1,2:30:00,23.7 ,69.0 ,24.0 ,23.7 ,23.2 
2003/8/1,2:45:00,23.6 ,69.1 ,24.0 ,23.8 ,23.1 
2003/8/1,3:00:00,23.6 ,69.1 ,23.9 ,23.8 ,23.1 
2003/8/1,3:15:00,23.6 ,69.7 ,23.9 ,23.8 ,23.0 
2003/8/1,3:30:00,23.5 ,69.4 ,23.8 ,23.8 ,23.0 
2003/8/1,3:45:00,23.4 ,69.4 ,23.8 ,23.8 ,22.9 
2003/8/1,4:00:00,23.4 ,69.7 ,23.7 ,23.9 ,22.9 
2003/8/1,4:15:00,23.4 ,69.9 ,23.7 ,23.9 ,22.8 
2003/8/1,4:30:00,23.3 ,70.0 ,23.6 ,23.9 ,22.8 
2003/8/1,4:45:00,23.3 ,70.0 ,23.6 ,23.9 ,22.7 
2003/8/1,5:00:00,23.2 ,69.9 ,23.6 ,23.9 ,22.7 
2003/8/1,5:15:00,23.2 ,70.6 ,23.5 ,23.9 ,22.7 
2003/8/1,5:30:00,23.2 ,70.6 ,23.5 ,23.9 ,22.7 
2003/8/1,5:45:00,23.2 ,71.1 ,23.5 ,23.9 ,22.7 
2003/8/1,6:00:00,23.1 ,70.9 ,23.5 ,23.9 ,22.7 
2003/8/1,6:15:00,23.1 ,71.6 ,23.5 ,23.9 ,22.7 
2003/8/1,6:30:00,23.2 ,71.8 ,23.6 ,23.9 ,22.7 
2003/8/1,6:45:00,23.2 ,72.2 ,23.6 ,23.9 ,22.8 
2003/8/1,7:00:00,23.2 ,72.7 ,23.7 ,23.1 ,22.9 
2003/8/1,7:15:00,23.4 ,73.0 ,23.8 ,23.2 ,23.1 
2003/8/1,7:30:00,23.5 ,73.1 ,23.9 ,23.2 ,23.2 
2003/8/1,7:45:00,23.6 ,74.2 ,24.1 ,23.2 ,23.4 
2003/8/1,8:00:00,23.6 ,73.4 ,24.2 ,23.2 ,23.5 
2003/8/1,8:15:00,23.7 ,73.5 ,24.3 ,23.2 ,23.6 
2003/8/1,8:30:00,23.8 ,73.9 ,24.5 ,23.3 ,26.4 
2003/8/1,8:45:00,23.9 ,74.3 ,24.6 ,23.3 ,26.0 
2003/8/1,9:00:00,24.0 ,74.3 ,24.7 ,23.3 ,25.3 
2003/8/1,9:15:00,24.1 ,74.7 ,24.8 ,23.3 ,24.9 
2003/8/1,9:30:00,24.2 ,75.2 ,24.9 ,23.4 ,24.8 
2003/8/1,9:45:00,24.4 ,75.1 ,25.1 ,23.4 ,24.8 
2003/8/1,10:00:00,24.5 ,74.9 ,25.3 ,23.4 ,24.9 
2003/8/1,10:15:00,24.6 ,74.9 ,25.3 ,23.4 ,25.0 
2003/8/1,10:30:00,24.6 ,74.7 ,25.3 ,23.4 ,25.0 
2003/8/1,10:45:00,24.7 ,74.6 ,25.4 ,23.5 ,25.0 
2003/8/1,11:00:00,24.8 ,74.8 ,25.4 ,23.5 ,25.1 
2003/8/1,11:15:00,24.8 ,74.4 ,25.5 ,23.5 ,25.1 
2003/8/1,11:30:00,24.9 ,74.4 ,25.5 ,23.5 ,25.2 
2003/8/1,11:45:00,24.9 ,74.3 ,25.6 ,23.6 ,25.3 
2003/8/1,12:00:00,25.0 ,74.5 ,25.8 ,23.6 ,25.5 
2003/8/1,12:15:00,25.2 ,74.8 ,25.9 ,23.4 ,25.6 
2003/8/1,12:30:00,25.3 ,74.4 ,26.0 ,23.4 ,25.6 
2003/8/1,12:45:00,25.4 ,74.5 ,26.0 ,23.4 ,25.7 
2003/8/1,13:00:00,25.5 ,74.0 ,26.1 ,23.5 ,25.9 
2003/8/1,13:15:00,25.6 ,74.3 ,26.2 ,23.2 ,26.1 
2003/8/1,13:30:00,25.7 ,74.4 ,26.3 ,23.2 ,26.4 
2003/8/1,13:45:00,25.8 ,74.1 ,26.3 ,23.3 ,26.3 
2003/8/1,14:00:00,25.9 ,74.5 ,26.4 ,23.4 ,26.4 
2003/8/1,14:15:00,26.0 ,74.9 ,26.4 ,23.4 ,26.5 
2003/8/1,14:30:00,26.2 ,75.4 ,26.6 ,23.4 ,26.8 
2003/8/1,14:45:00,26.3 ,75.4 ,26.6 ,23.5 ,26.8 
2003/8/1,15:00:00,26.4 ,74.8 ,26.7 ,23.6 ,26.9 
2003/8/1,15:15:00,26.5 ,74.7 ,26.8 ,23.2 ,26.9 
2003/8/1,15:30:00,26.6 ,74.3 ,26.8 ,23.3 ,27.0 
2003/8/1,15:45:00,26.7 ,75.2 ,26.9 ,23.5 ,27.1 
2003/8/1,16:00:00,26.9 ,74.3 ,27.0 ,23.6 ,27.3 
2003/8/1,16:15:00,27.0 ,73.2 ,27.1 ,23.6 ,27.4 
2003/8/1,16:30:00,27.1 ,72.6 ,27.1 ,23.7 ,27.4 
2003/8/1,16:45:00,27.1 ,72.4 ,27.1 ,23.7 ,27.4 
2003/8/1,17:00:00,27.1 ,72.3 ,27.1 ,23.8 ,27.4 
2003/8/1,17:15:00,27.2 ,71.9 ,27.1 ,23.8 ,27.3 
2003/8/1,17:30:00,27.2 ,72.0 ,27.1 ,23.9 ,27.3 
2003/8/1,17:45:00,27.2 ,71.8 ,27.0 ,23.9 ,27.2 
2003/8/1,18:00:00,27.2 ,72.5 ,27.0 ,24.0 ,27.2 
2003/8/1,18:15:00,27.2 ,72.2 ,27.0 ,24.0 ,27.2 
2003/8/1,18:30:00,27.2 ,71.8 ,27.0 ,24.1 ,27.1 
2003/8/1,18:45:00,27.1 ,70.9 ,27.0 ,24.1 ,27.0 
2003/8/1,19:00:00,27.1 ,70.9 ,27.1 ,24.2 ,27.0 
2003/8/1,19:15:00,27.0 ,70.5 ,27.1 ,24.2 ,26.9 
2003/8/1,19:30:00,27.0 ,71.0 ,27.4 ,24.3 ,26.8 
2003/8/1,19:45:00,26.9 ,71.1 ,27.3 ,24.3 ,26.8 
2003/8/1,20:00:00,26.9 ,71.1 ,27.1 ,24.3 ,26.7 
2003/8/1,20:15:00,26.9 ,71.3 ,27.0 ,24.4 ,26.6 
2003/8/1,20:30:00,26.8 ,71.1 ,27.2 ,24.4 ,26.6 
2003/8/1,20:45:00,26.8 ,71.1 ,27.0 ,24.5 ,26.5 
2003/8/1,21:00:00,26.7 ,71.2 ,26.9 ,24.5 ,26.5 
2003/8/1,21:15:00,26.7 ,71.5 ,26.9 ,24.5 ,26.4 
2003/8/1,21:30:00,26.6 ,71.5 ,26.8 ,24.6 ,26.3 
2003/8/1,21:45:00,26.6 ,71.1 ,26.8 ,24.6 ,26.3 
2003/8/1,22:00:00,26.5 ,71.2 ,26.7 ,24.6 ,26.2 
2003/8/1,22:15:00,26.5 ,71.1 ,26.7 ,24.7 ,26.1 
2003/8/1,22:30:00,26.4 ,71.1 ,26.6 ,24.7 ,26.1 
2003/8/1,22:45:00,26.4 ,71.3 ,26.6 ,24.7 ,26.1 
2003/8/1,23:00:00,26.3 ,71.3 ,26.5 ,24.7 ,26.0 
2003/8/1,23:15:00,26.3 ,71.4 ,26.5 ,24.8 ,26.0 
2003/8/1,23:30:00,26.3 ,71.6 ,26.4 ,24.8 ,25.9 
2003/8/1,23:45:00,26.2 ,71.4 ,26.4 ,24.8 ,25.9 
2003/8/2,0:00:00,26.2 ,71.2 ,26.4 ,23.7 ,25.8 
2003/8/2,0:15:00,26.1 ,71.3 ,26.3 ,23.8 ,25.8 
2003/8/2,0:30:00,26.1 ,71.5 ,26.3 ,23.9 ,25.7 
2003/8/2,0:45:00,26.0 ,71.6 ,26.2 ,23.9 ,25.7 
2003/8/2,1:00:00,26.0 ,71.6 ,26.2 ,24.0 ,25.7 
2003/8/2,1:15:00,26.0 ,71.5 ,26.2 ,24.0 ,25.7 
2003/8/2,1:30:00,25.9 ,71.7 ,26.1 ,24.1 ,25.6 
2003/8/2,1:45:00,25.9 ,71.5 ,26.1 ,24.2 ,25.5 
2003/8/2,2:00:00,25.8 ,71.3 ,26.0 ,24.2 ,25.5 
2003/8/2,2:15:00,25.7 ,71.5 ,25.9 ,24.2 ,25.4 
2003/8/2,2:30:00,25.7 ,71.3 ,25.9 ,24.3 ,25.3 
2003/8/2,2:45:00,25.6 ,71.2 ,25.8 ,24.3 ,25.2 
2003/8/2,3:00:00,25.5 ,71.4 ,25.8 ,24.3 ,25.1 
2003/8/2,3:15:00,25.5 ,71.4 ,25.7 ,24.4 ,25.1 
2003/8/2,3:30:00,25.5 ,71.8 ,25.7 ,24.4 ,25.1 
2003/8/2,3:45:00,25.4 ,71.7 ,25.7 ,24.4 ,25.0 
2003/8/2,4:00:00,25.3 ,72.0 ,25.6 ,24.5 ,24.9 
2003/8/2,4:15:00,25.3 ,72.0 ,25.8 ,24.5 ,24.9 
2003/8/2,4:30:00,25.2 ,72.5 ,25.8 ,24.5 ,24.9 
2003/8/2,4:45:00,25.2 ,72.6 ,25.6 ,24.5 ,24.8 
2003/8/2,5:00:00,25.2 ,72.8 ,25.5 ,24.6 ,24.8 
2003/8/2,5:15:00,25.1 ,73.0 ,25.5 ,24.6 ,24.7 
2003/8/2,5:30:00,25.1 ,72.6 ,25.4 ,24.6 ,24.7 
2003/8/2,5:45:00,25.1 ,73.2 ,25.4 ,24.6 ,24.7 
2003/8/2,6:00:00,25.0 ,73.1 ,25.4 ,24.6 ,25.4 
2003/8/2,6:15:00,25.1 ,73.0 ,25.5 ,24.6 ,28.2 
2003/8/2,6:30:00,25.1 ,73.6 ,25.6 ,24.7 ,30.3 
2003/8/2,6:45:00,25.3 ,74.2 ,25.7 ,24.7 ,29.3 
2003/8/2,7:00:00,25.4 ,74.5 ,25.8 ,24.7 ,27.8 
2003/8/2,7:15:00,25.4 ,74.2 ,25.8 ,24.7 ,27.2 
2003/8/2,7:30:00,25.5 ,74.6 ,26.0 ,24.1 ,26.9 
2003/8/2,7:45:00,25.6 ,74.8 ,26.1 ,24.1 ,26.7 
2003/8/2,8:00:00,25.7 ,74.7 ,26.3 ,24.1 ,26.6 
2003/8/2,8:15:00,25.7 ,74.6 ,26.6 ,24.1 ,27.3 
2003/8/2,8:30:00,25.9 ,74.4 ,26.8 ,24.2 ,27.5 
2003/8/2,8:45:00,25.9 ,74.5 ,27.0 ,24.2 ,27.3 
2003/8/2,9:00:00,26.1 ,74.8 ,27.0 ,24.2 ,27.1 
2003/8/2,9:15:00,26.2 ,74.7 ,27.1 ,24.3 ,27.0 
2003/8/2,9:30:00,26.2 ,74.8 ,27.3 ,24.3 ,27.0 
2003/8/2,9:45:00,26.4 ,74.4 ,27.5 ,24.3 ,27.0 
2003/8/2,10:00:00,26.5 ,74.2 ,27.5 ,24.4 ,27.1 
2003/8/2,10:15:00,26.6 ,73.8 ,27.6 ,24.4 ,27.2 
2003/8/2,10:30:00,26.7 ,73.7 ,27.6 ,24.4 ,27.4 
2003/8/2,10:45:00,26.8 ,73.2 ,27.5 ,24.5 ,27.4 
2003/8/2,11:00:00,26.9 ,73.3 ,27.6 ,24.5 ,27.4 
2003/8/2,11:15:00,27.1 ,74.4 ,27.6 ,24.5 ,27.5 
2003/8/2,11:30:00,27.2 ,73.4 ,27.7 ,24.6 ,27.7 
2003/8/2,11:45:00,27.3 ,73.8 ,27.8 ,24.6 ,27.7 
2003/8/2,12:00:00,27.4 ,73.8 ,27.8 ,24.6 ,27.7 
2003/8/2,12:15:00,27.5 ,74.0 ,27.9 ,24.7 ,27.8 
2003/8/2,12:30:00,27.5 ,73.9 ,28.0 ,24.7 ,27.9 
2003/8/2,12:45:00,27.6 ,74.1 ,28.1 ,24.7 ,28.0 
2003/8/2,13:00:00,27.7 ,74.5 ,28.1 ,24.8 ,28.1 
2003/8/2,13:15:00,27.8 ,74.4 ,28.2 ,24.8 ,28.2 
2003/8/2,13:30:00,27.9 ,74.4 ,28.3 ,24.8 ,28.3 
2003/8/2,13:45:00,28.0 ,74.0 ,28.4 ,24.9 ,28.4 
2003/8/2,14:00:00,28.0 ,73.8 ,28.4 ,24.9 ,28.5 
2003/8/2,14:15:00,28.1 ,73.8 ,28.5 ,24.9 ,28.5 
2003/8/2,14:30:00,28.2 ,73.8 ,28.5 ,25.0 ,28.6 
2003/8/2,14:45:00,28.2 ,73.6 ,28.6 ,25.0 ,28.7 
2003/8/2,15:00:00,28.3 ,73.7 ,28.6 ,25.1 ,28.8 
2003/8/2,15:15:00,28.4 ,73.5 ,28.6 ,25.1 ,28.8 
2003/8/2,15:30:00,28.4 ,73.3 ,28.7 ,25.2 ,28.9 
2003/8/2,15:45:00,28.5 ,73.1 ,28.7 ,25.2 ,29.0 
2003/8/2,16:00:00,28.6 ,72.8 ,28.8 ,25.3 ,29.0 
2003/8/2,16:15:00,28.6 ,72.8 ,28.8 ,25.3 ,29.1 
2003/8/2,16:30:00,28.7 ,72.6 ,28.8 ,25.4 ,29.1 
2003/8/2,16:45:00,28.8 ,72.6 ,28.9 ,25.4 ,29.2 
2003/8/2,17:00:00,28.8 ,72.5 ,28.9 ,25.5 ,29.2 
2003/8/2,17:15:00,28.8 ,72.2 ,28.9 ,25.5 ,29.2 
2003/8/2,17:30:00,28.9 ,72.3 ,28.9 ,25.6 ,29.2 
2003/8/2,17:45:00,28.9 ,72.0 ,28.9 ,25.6 ,29.2 
2003/8/2,18:00:00,28.9 ,72.0 ,28.9 ,25.6 ,29.2 
2003/8/2,18:15:00,28.9 ,72.1 ,28.9 ,25.7 ,29.2 
2003/8/2,18:30:00,28.9 ,72.0 ,28.9 ,25.7 ,29.1 
2003/8/2,18:45:00,28.9 ,72.0 ,28.9 ,25.8 ,29.1 
2003/8/2,19:00:00,28.9 ,71.9 ,28.9 ,25.8 ,29.1 
2003/8/2,19:15:00,28.9 ,72.3 ,28.9 ,25.9 ,29.0 
2003/8/2,19:30:00,28.8 ,71.7 ,28.9 ,25.6 ,28.9 
2003/8/2,19:45:00,28.7 ,71.1 ,28.8 ,25.6 ,28.7 
2003/8/2,20:00:00,28.6 ,70.9 ,28.8 ,25.7 ,28.5 
2003/8/2,20:15:00,28.6 ,70.9 ,29.0 ,25.7 ,28.5 
2003/8/2,20:30:00,28.5 ,71.1 ,28.8 ,25.8 ,28.4 
2003/8/2,20:45:00,28.5 ,71.2 ,28.8 ,25.0 ,30.9 
2003/8/2,21:00:00,28.4 ,71.7 ,28.9 ,25.1 ,30.1 
2003/8/2,21:15:00,28.4 ,72.0 ,28.8 ,25.2 ,29.8 
2003/8/2,21:30:00,28.4 ,72.0 ,28.8 ,25.3 ,29.5 
2003/8/2,21:45:00,28.5 ,72.2 ,28.8 ,25.3 ,29.3 
2003/8/2,22:00:00,28.4 ,71.8 ,28.7 ,25.4 ,29.0 
2003/8/2,22:15:00,28.4 ,71.5 ,28.7 ,25.5 ,28.8 
2003/8/2,22:30:00,28.4 ,69.7 ,28.6 ,25.5 ,28.7 
2003/8/2,22:45:00,28.2 ,68.9 ,28.5 ,25.6 ,28.5 
2003/8/2,23:00:00,28.1 ,68.0 ,28.4 ,25.7 ,28.2 
2003/8/2,23:15:00,28.0 ,68.3 ,28.3 ,25.7 ,28.1 
2003/8/2,23:30:00,28.0 ,67.5 ,28.2 ,25.7 ,27.9 
2003/8/2,23:45:00,27.9 ,67.4 ,28.2 ,25.8 ,27.8 
2003/8/3,0:00:00,27.8 ,68.1 ,28.1 ,25.9 ,27.6 
2003/8/3,0:15:00,27.8 ,66.8 ,28.0 ,25.9 ,27.5 
2003/8/3,0:30:00,27.7 ,66.6 ,28.0 ,25.9 ,27.4 
2003/8/3,0:45:00,27.6 ,66.4 ,27.9 ,26.0 ,27.3 
2003/8/3,1:00:00,27.5 ,66.0 ,27.8 ,26.0 ,27.2 
2003/8/3,1:15:00,27.4 ,66.0 ,27.7 ,26.0 ,27.1 
2003/8/3,1:30:00,27.4 ,65.5 ,27.7 ,26.1 ,27.0 
2003/8/3,1:45:00,27.3 ,65.9 ,27.6 ,26.1 ,27.0 
2003/8/3,2:00:00,27.2 ,65.6 ,27.6 ,26.1 ,26.9 
2003/8/3,2:15:00,27.3 ,68.4 ,27.6 ,26.1 ,27.0 
2003/8/3,2:30:00,27.3 ,68.8 ,27.6 ,26.2 ,27.1 
2003/8/3,2:45:00,27.3 ,68.8 ,27.6 ,26.2 ,27.1 
2003/8/3,3:00:00,27.4 ,69.3 ,27.6 ,26.2 ,27.1 
2003/8/3,3:15:00,27.4 ,69.4 ,27.6 ,26.2 ,27.1 
2003/8/3,3:30:00,27.4 ,69.5 ,27.6 ,26.2 ,27.1 
2003/8/3,3:45:00,27.4 ,69.5 ,27.6 ,26.3 ,27.1 
2003/8/3,4:00:00,27.3 ,69.8 ,27.6 ,26.3 ,27.1 
2003/8/3,4:15:00,27.3 ,69.8 ,27.5 ,26.3 ,27.1 
2003/8/3,4:30:00,27.3 ,69.7 ,27.5 ,26.3 ,27.1 
2003/8/3,4:45:00,27.3 ,69.4 ,27.5 ,26.3 ,27.1 
2003/8/3,5:00:00,27.2 ,67.9 ,27.4 ,26.4 ,26.9 
2003/8/3,5:15:00,27.1 ,67.9 ,27.4 ,26.4 ,26.9 
2003/8/3,5:30:00,27.1 ,67.8 ,27.3 ,26.4 ,26.8 
2003/8/3,5:45:00,27.0 ,67.8 ,27.3 ,26.4 ,26.8 
2003/8/3,6:00:00,27.0 ,67.7 ,27.3 ,26.4 ,26.7 
2003/8/3,6:15:00,26.9 ,67.2 ,27.3 ,26.4 ,26.7 
2003/8/3,6:30:00,26.9 ,67.5 ,27.3 ,26.4 ,26.6 
2003/8/3,6:45:00,26.9 ,69.5 ,27.3 ,24.7 ,26.7 
2003/8/3,7:00:00,27.0 ,69.7 ,27.4 ,24.7 ,26.8 
2003/8/3,7:15:00,27.1 ,71.4 ,27.5 ,24.4 ,26.9 
2003/8/3,7:30:00,27.1 ,71.0 ,27.7 ,24.4 ,27.0 
2003/8/3,7:45:00,27.2 ,71.1 ,27.9 ,24.5 ,27.2 
2003/8/3,8:00:00,27.2 ,71.1 ,28.1 ,24.5 ,27.3 
2003/8/3,8:15:00,27.3 ,71.0 ,28.2 ,24.6 ,27.5 
2003/8/3,8:30:00,27.4 ,71.3 ,28.4 ,24.6 ,27.6 
2003/8/3,8:45:00,27.5 ,71.1 ,28.5 ,24.7 ,27.8 
2003/8/3,9:00:00,27.6 ,71.4 ,28.7 ,24.7 ,27.9 
2003/8/3,9:15:00,27.7 ,71.3 ,28.8 ,24.8 ,28.0 
2003/8/3,9:30:00,27.9 ,72.8 ,28.9 ,24.8 ,28.2 
2003/8/3,9:45:00,28.0 ,71.8 ,28.9 ,24.9 ,28.3 
2003/8/3,10:00:00,28.0 ,71.3 ,29.0 ,24.9 ,28.4 
2003/8/3,10:15:00,28.1 ,71.2 ,29.1 ,25.0 ,28.5 
2003/8/3,10:30:00,28.1 ,71.0 ,29.2 ,25.0 ,28.5 
2003/8/3,10:45:00,28.1 ,69.0 ,29.2 ,25.1 ,28.6 
2003/8/3,11:00:00,28.1 ,68.4 ,29.3 ,25.1 ,28.7 
2003/8/3,11:15:00,28.2 ,68.2 ,29.3 ,25.2 ,28.8 
2003/8/3,11:30:00,28.2 ,67.6 ,29.4 ,25.2 ,28.9 
2003/8/3,11:45:00,28.3 ,67.2 ,29.4 ,25.3 ,29.0 
2003/8/3,12:00:00,28.4 ,65.4 ,29.5 ,25.3 ,29.2 
2003/8/3,12:15:00,28.6 ,64.7 ,29.6 ,25.4 ,29.4 
2003/8/3,12:30:00,28.8 ,65.3 ,29.7 ,25.4 ,29.6 
2003/8/3,12:45:00,29.1 ,64.0 ,29.8 ,25.4 ,29.8 
2003/8/3,13:00:00,29.1 ,64.1 ,29.8 ,25.5 ,29.9 
2003/8/3,13:15:00,29.2 ,62.1 ,29.8 ,25.5 ,29.9 
2003/8/3,13:30:00,29.3 ,61.7 ,29.8 ,24.5 ,29.9 
2003/8/3,13:45:00,29.4 ,59.8 ,29.9 ,24.6 ,30.0 
2003/8/3,14:00:00,29.5 ,56.6 ,29.9 ,24.7 ,30.0 
2003/8/3,14:15:00,29.7 ,55.0 ,29.9 ,24.7 ,30.1 
2003/8/3,14:30:00,29.8 ,54.6 ,29.9 ,24.8 ,30.1 
2003/8/3,14:45:00,30.0 ,53.3 ,30.0 ,24.9 ,32.7 
2003/8/3,15:00:00,30.2 ,52.7 ,30.0 ,25.0 ,32.6 
2003/8/3,15:15:00,30.3 ,53.0 ,30.0 ,25.0 ,31.8 
2003/8/3,15:30:00,30.5 ,53.4 ,30.1 ,25.1 ,32.1 
2003/8/3,15:45:00,30.7 ,53.8 ,30.2 ,25.2 ,34.4 
2003/8/3,16:00:00,31.0 ,53.9 ,30.2 ,25.3 ,35.7 
2003/8/3,16:15:00,31.0 ,53.9 ,30.2 ,25.3 ,33.1 
2003/8/3,16:30:00,30.9 ,54.3 ,30.2 ,25.4 ,31.7 
2003/8/3,16:45:00,30.9 ,54.3 ,30.2 ,25.5 ,31.4 
2003/8/3,17:00:00,30.7 ,55.1 ,30.2 ,25.5 ,31.3 
2003/8/3,17:15:00,30.6 ,55.4 ,30.1 ,25.6 ,31.2 
2003/8/3,17:30:00,30.5 ,56.6 ,30.1 ,25.7 ,31.1 
2003/8/3,17:45:00,30.4 ,56.7 ,30.0 ,25.7 ,30.9 
2003/8/3,18:00:00,30.3 ,56.8 ,30.0 ,25.8 ,30.7 
2003/8/3,18:15:00,30.2 ,57.3 ,29.9 ,25.9 ,30.6 
2003/8/3,18:30:00,30.1 ,58.0 ,29.9 ,25.9 ,30.4 
2003/8/3,18:45:00,30.1 ,58.8 ,29.7 ,26.0 ,30.2 
2003/8/3,19:00:00,30.0 ,58.9 ,29.7 ,26.1 ,30.0 
2003/8/3,19:15:00,30.1 ,59.3 ,29.7 ,26.1 ,30.0 
2003/8/3,19:30:00,29.9 ,60.0 ,29.8 ,26.2 ,29.9 
2003/8/3,19:45:00,29.9 ,60.3 ,29.8 ,26.2 ,29.9 
2003/8/3,20:00:00,29.8 ,60.7 ,30.1 ,26.3 ,29.8 
2003/8/3,20:15:00,29.8 ,61.2 ,29.9 ,26.3 ,32.7 
2003/8/3,20:30:00,29.8 ,61.9 ,29.8 ,26.4 ,31.5 
2003/8/3,20:45:00,29.8 ,62.3 ,29.8 ,26.4 ,30.7 
2003/8/3,21:00:00,29.7 ,62.4 ,29.7 ,26.5 ,30.2 
2003/8/3,21:15:00,29.7 ,63.1 ,29.7 ,26.5 ,29.9 
2003/8/3,21:30:00,29.8 ,62.9 ,29.7 ,26.6 ,29.8 
2003/8/3,21:45:00,29.7 ,63.4 ,29.6 ,26.6 ,29.6 
2003/8/3,22:00:00,29.7 ,62.9 ,29.6 ,25.9 ,29.5 
2003/8/3,22:15:00,29.6 ,62.0 ,29.5 ,26.0 ,29.5 
2003/8/3,22:30:00,29.5 ,60.8 ,29.4 ,26.1 ,29.3 
2003/8/3,22:45:00,29.4 ,59.1 ,29.3 ,26.2 ,29.1 
2003/8/3,23:00:00,29.3 ,59.3 ,29.2 ,26.2 ,29.0 
2003/8/3,23:15:00,29.1 ,59.3 ,29.2 ,26.3 ,28.8 
2003/8/3,23:30:00,29.1 ,60.2 ,29.1 ,26.3 ,28.7 
2003/8/3,23:45:00,29.1 ,61.0 ,29.1 ,26.4 ,28.7 
2003/8/4,0:00:00,29.0 ,61.0 ,29.0 ,26.4 ,28.6 
2003/8/4,0:15:00,29.0 ,60.9 ,29.0 ,26.5 ,28.6 
2003/8/4,0:30:00,28.9 ,60.9 ,28.9 ,26.5 ,28.5 
2003/8/4,0:45:00,28.9 ,61.1 ,28.9 ,26.6 ,28.5 
2003/8/4,1:00:00,28.8 ,61.0 ,28.8 ,26.6 ,28.4 
2003/8/4,1:15:00,28.7 ,61.2 ,28.7 ,26.7 ,28.3 
2003/8/4,1:30:00,28.7 ,61.4 ,28.7 ,26.7 ,28.2 
2003/8/4,1:45:00,28.6 ,61.4 ,28.6 ,26.7 ,28.2 
2003/8/4,2:00:00,28.6 ,61.5 ,28.6 ,26.8 ,28.1 
2003/8/4,2:15:00,28.6 ,61.5 ,28.6 ,26.8 ,28.1 
2003/8/4,2:30:00,28.5 ,61.4 ,28.5 ,26.8 ,28.0 
2003/8/4,2:45:00,28.4 ,61.3 ,28.5 ,26.8 ,27.9 
2003/8/4,3:00:00,28.4 ,61.6 ,28.4 ,26.9 ,27.9 
2003/8/4,3:15:00,28.3 ,61.8 ,28.4 ,26.9 ,27.8 
2003/8/4,3:30:00,28.3 ,61.6 ,28.3 ,26.9 ,27.8 
2003/8/4,3:45:00,28.3 ,62.4 ,28.3 ,26.9 ,27.8 
2003/8/4,4:00:00,28.3 ,62.9 ,28.3 ,26.9 ,27.8 
2003/8/4,4:15:00,28.2 ,63.2 ,28.3 ,27.0 ,27.8 
2003/8/4,4:30:00,28.2 ,63.4 ,28.3 ,27.0 ,27.8 
2003/8/4,4:45:00,28.2 ,63.6 ,28.3 ,27.0 ,27.8 
2003/8/4,5:00:00,28.2 ,63.8 ,28.2 ,27.0 ,27.8 
2003/8/4,5:15:00,28.2 ,64.0 ,28.2 ,27.0 ,27.7 
2003/8/4,5:30:00,28.2 ,64.0 ,28.2 ,27.0 ,27.7 
2003/8/4,5:45:00,28.1 ,64.3 ,28.1 ,27.1 ,27.7 
2003/8/4,6:00:00,28.1 ,64.5 ,28.1 ,27.1 ,27.6 
2003/8/4,6:15:00,28.1 ,64.6 ,28.1 ,27.1 ,27.6 
2003/8/4,6:30:00,28.0 ,64.9 ,28.1 ,25.2 ,27.6 
2003/8/4,6:45:00,28.1 ,65.4 ,28.1 ,26.1 ,27.6 
2003/8/4,7:00:00,28.1 ,65.4 ,28.2 ,26.1 ,27.7 
2003/8/4,7:15:00,28.1 ,65.6 ,28.3 ,26.2 ,27.7 
2003/8/4,7:30:00,28.2 ,65.8 ,28.3 ,26.2 ,27.8 
2003/8/4,7:45:00,28.3 ,66.0 ,28.4 ,26.2 ,27.8 
2003/8/4,8:00:00,28.4 ,66.4 ,28.4 ,25.1 ,27.9 
2003/8/4,8:15:00,28.4 ,65.9 ,28.5 ,25.2 ,28.0 
2003/8/4,8:30:00,28.4 ,66.0 ,28.6 ,25.2 ,28.1 
2003/8/4,8:45:00,28.4 ,66.3 ,28.6 ,25.3 ,28.1 
2003/8/4,9:00:00,28.4 ,66.1 ,28.6 ,25.4 ,28.2 
2003/8/4,9:15:00,28.4 ,66.2 ,28.7 ,25.4 ,28.3 
2003/8/4,9:30:00,28.4 ,66.2 ,28.7 ,25.5 ,28.3 
2003/8/4,9:45:00,28.4 ,66.3 ,28.7 ,25.6 ,28.3 
2003/8/4,10:00:00,28.5 ,66.6 ,28.7 ,25.6 ,28.3 
2003/8/4,10:15:00,28.5 ,66.6 ,28.7 ,25.7 ,28.4 
2003/8/4,10:30:00,28.5 ,66.6 ,28.7 ,25.8 ,28.4 
2003/8/4,10:45:00,28.5 ,66.7 ,28.7 ,25.8 ,28.4 
2003/8/4,11:00:00,28.5 ,66.8 ,28.8 ,25.9 ,28.5 
2003/8/4,11:15:00,28.6 ,67.0 ,28.8 ,25.9 ,28.5 
2003/8/4,11:30:00,28.6 ,67.1 ,28.8 ,26.0 ,28.5 
2003/8/4,11:45:00,28.6 ,67.2 ,28.9 ,26.1 ,28.6 
2003/8/4,12:00:00,28.7 ,67.2 ,29.0 ,26.1 ,28.6 
2003/8/4,12:15:00,28.7 ,67.1 ,29.0 ,26.2 ,28.7 
2003/8/4,12:30:00,28.7 ,67.2 ,29.1 ,26.2 ,28.8 
2003/8/4,12:45:00,28.8 ,67.3 ,29.1 ,26.3 ,28.8 
2003/8/4,13:00:00,28.8 ,67.2 ,29.1 ,26.3 ,28.9 
2003/8/4,13:15:00,28.9 ,67.2 ,29.2 ,26.4 ,29.0 
2003/8/4,13:30:00,28.9 ,67.4 ,29.2 ,26.4 ,29.0 
2003/8/4,13:45:00,29.0 ,67.5 ,29.3 ,26.5 ,29.1 
2003/8/4,14:00:00,29.0 ,67.4 ,29.3 ,26.5 ,29.1 
2003/8/4,14:15:00,29.1 ,67.5 ,29.3 ,26.6 ,29.2 
2003/8/4,14:30:00,29.1 ,67.5 ,29.3 ,26.6 ,29.2 
2003/8/4,14:45:00,29.1 ,67.6 ,29.3 ,26.7 ,29.2 
2003/8/4,15:00:00,29.2 ,67.6 ,29.4 ,26.8 ,29.3 
2003/8/4,15:15:00,29.2 ,67.8 ,29.4 ,26.8 ,29.3 
2003/8/4,15:30:00,29.2 ,67.8 ,29.4 ,26.8 ,29.3 
2003/8/4,15:45:00,29.3 ,68.0 ,29.4 ,26.9 ,29.3 
2003/8/4,16:00:00,29.3 ,67.8 ,29.4 ,26.9 ,29.3 
2003/8/4,16:15:00,29.3 ,67.5 ,29.4 ,27.0 ,29.3 
2003/8/4,16:30:00,29.3 ,67.9 ,29.4 ,27.0 ,29.3 
2003/8/4,16:45:00,29.3 ,67.0 ,29.4 ,27.1 ,29.3 
2003/8/4,17:00:00,28.7 ,61.6 ,29.4 ,27.1 ,30.2 
2003/8/4,17:15:00,28.6 ,62.4 ,29.3 ,27.1 ,31.4 
2003/8/4,17:30:00,28.3 ,59.0 ,29.3 ,27.2 ,30.6 
2003/8/4,17:45:00,28.1 ,59.8 ,29.3 ,27.2 ,30.0 
2003/8/4,18:00:00,27.8 ,58.8 ,29.3 ,27.2 ,29.5 
2003/8/4,18:15:00,27.5 ,58.5 ,29.2 ,27.2 ,29.0 
2003/8/4,18:30:00,27.3 ,57.9 ,29.2 ,27.3 ,28.6 
2003/8/4,18:45:00,27.1 ,58.1 ,29.2 ,27.3 ,28.3 
2003/8/4,19:00:00,26.9 ,59.3 ,29.0 ,25.6 ,28.1 
2003/8/4,19:15:00,26.9 ,59.0 ,28.6 ,25.7 ,27.9 
2003/8/4,19:30:00,27.3 ,65.4 ,28.6 ,25.7 ,28.0 
2003/8/4,19:45:00,27.8 ,67.5 ,28.7 ,25.1 ,28.3 
2003/8/4,20:00:00,28.1 ,67.6 ,28.8 ,25.2 ,28.5 
2003/8/4,20:15:00,28.2 ,67.5 ,28.8 ,25.3 ,28.5 
2003/8/4,20:30:00,28.4 ,68.7 ,29.1 ,25.3 ,28.6 
2003/8/4,20:45:00,28.6 ,68.5 ,29.4 ,25.4 ,28.7 
2003/8/4,21:00:00,28.6 ,68.2 ,29.3 ,25.5 ,28.7 
2003/8/4,21:15:00,28.7 ,68.1 ,29.1 ,25.5 ,28.7 
2003/8/4,21:30:00,28.7 ,68.6 ,29.1 ,25.6 ,28.8 
2003/8/4,21:45:00,28.8 ,68.5 ,29.0 ,25.6 ,28.8 
2003/8/4,22:00:00,28.8 ,68.5 ,29.0 ,25.7 ,28.8 
2003/8/4,22:15:00,28.8 ,68.3 ,29.0 ,25.7 ,28.8 
2003/8/4,22:30:00,28.8 ,68.6 ,29.0 ,25.8 ,28.8 
2003/8/4,22:45:00,28.8 ,68.7 ,29.0 ,25.9 ,28.8 
2003/8/4,23:00:00,28.9 ,68.7 ,29.0 ,25.9 ,28.8 
2003/8/4,23:15:00,28.8 ,68.7 ,29.0 ,25.9 ,28.8 
2003/8/4,23:30:00,28.9 ,68.8 ,29.0 ,26.0 ,28.8 
2003/8/4,23:45:00,28.9 ,69.0 ,29.0 ,26.0 ,28.8 
2003/8/5,0:00:00,28.9 ,69.0 ,29.0 ,26.1 ,28.8 
2003/8/5,0:15:00,28.8 ,68.9 ,29.0 ,26.1 ,28.7 
2003/8/5,0:30:00,28.9 ,69.2 ,29.0 ,26.2 ,28.7 
2003/8/5,0:45:00,28.8 ,69.2 ,29.0 ,26.2 ,28.7 
2003/8/5,1:00:00,28.8 ,69.2 ,29.0 ,26.3 ,28.7 
2003/8/5,1:15:00,28.8 ,69.3 ,29.0 ,26.3 ,28.7 
2003/8/5,1:30:00,28.8 ,69.3 ,29.0 ,26.3 ,28.7 
2003/8/5,1:45:00,28.8 ,69.2 ,28.9 ,26.4 ,28.6 
2003/8/5,2:00:00,28.8 ,69.3 ,28.9 ,26.4 ,28.6 
2003/8/5,2:15:00,28.7 ,69.4 ,28.9 ,26.5 ,28.6 
2003/8/5,2:30:00,28.7 ,69.4 ,28.9 ,26.5 ,28.6 
2003/8/5,2:45:00,28.7 ,69.3 ,28.9 ,26.5 ,28.5 
2003/8/5,3:00:00,28.7 ,69.5 ,28.9 ,26.6 ,28.5 
2003/8/5,3:15:00,28.7 ,69.5 ,28.9 ,26.6 ,28.5 
2003/8/5,3:30:00,28.7 ,69.4 ,28.9 ,26.6 ,28.5 
2003/8/5,3:45:00,28.6 ,69.5 ,28.8 ,26.7 ,28.5 
2003/8/5,4:00:00,28.6 ,69.6 ,28.8 ,26.7 ,28.4 
2003/8/5,4:15:00,28.6 ,69.5 ,28.8 ,26.7 ,28.4 
2003/8/5,4:30:00,28.6 ,69.6 ,28.8 ,26.8 ,28.4 
2003/8/5,4:45:00,28.6 ,69.6 ,28.8 ,26.8 ,28.4 
2003/8/5,5:00:00,28.6 ,69.7 ,28.8 ,26.8 ,28.4 
2003/8/5,5:15:00,28.5 ,69.5 ,28.8 ,26.8 ,28.3 
2003/8/5,5:30:00,28.5 ,68.6 ,28.7 ,26.9 ,28.9 
2003/8/5,5:45:00,27.9 ,64.4 ,28.6 ,26.9 ,28.8 
2003/8/5,6:00:00,27.6 ,63.0 ,28.4 ,26.9 ,28.3 
2003/8/5,6:15:00,27.3 ,62.5 ,28.2 ,25.4 ,27.9 
2003/8/5,6:30:00,27.1 ,61.8 ,28.2 ,25.5 ,27.6 
2003/8/5,6:45:00,26.9 ,62.1 ,28.2 ,25.6 ,27.4 
2003/8/5,7:00:00,26.7 ,62.1 ,28.2 ,25.5 ,27.2 
2003/8/5,7:15:00,26.6 ,62.4 ,28.2 ,25.5 ,27.1 
2003/8/5,7:30:00,26.7 ,67.7 ,28.1 ,25.4 ,27.0 
2003/8/5,7:45:00,27.1 ,67.5 ,28.2 ,25.4 ,27.2 
2003/8/5,8:00:00,27.3 ,68.2 ,28.3 ,25.4 ,27.3 
2003/8/5,8:15:00,27.5 ,68.7 ,28.3 ,25.5 ,27.4 
2003/8/5,8:30:00,27.3 ,65.5 ,28.4 ,25.5 ,27.4 
2003/8/5,8:45:00,27.1 ,63.9 ,28.4 ,25.6 ,27.2 
2003/8/5,9:00:00,27.0 ,63.4 ,28.5 ,25.6 ,27.1 
2003/8/5,9:15:00,26.9 ,63.5 ,28.5 ,25.7 ,27.0 
2003/8/5,9:30:00,26.9 ,65.2 ,28.5 ,25.7 ,27.0 
2003/8/5,9:45:00,26.8 ,62.8 ,28.4 ,25.7 ,26.9 
2003/8/5,10:00:00,26.7 ,66.6 ,28.3 ,25.8 ,28.0 
2003/8/5,10:15:00,26.9 ,68.1 ,28.3 ,25.8 ,29.4 
2003/8/5,10:30:00,27.1 ,68.6 ,28.2 ,25.8 ,30.0 
2003/8/5,10:45:00,27.3 ,67.8 ,28.2 ,25.8 ,30.3 
2003/8/5,11:00:00,27.4 ,68.2 ,28.1 ,25.9 ,32.5 
2003/8/5,11:15:00,27.4 ,69.0 ,28.1 ,25.9 ,30.5 
2003/8/5,11:30:00,27.5 ,69.0 ,28.1 ,25.9 ,29.0 
2003/8/5,11:45:00,27.4 ,67.4 ,28.1 ,25.4 ,28.8 
2003/8/5,12:00:00,27.4 ,67.5 ,28.1 ,25.4 ,29.2 
2003/8/5,12:15:00,27.4 ,67.9 ,28.2 ,25.5 ,28.8 
2003/8/5,12:30:00,27.4 ,66.8 ,28.2 ,25.5 ,28.5 
2003/8/5,12:45:00,27.4 ,66.1 ,28.2 ,25.5 ,28.2 
2003/8/5,13:00:00,27.3 ,66.7 ,28.2 ,25.6 ,28.0 
2003/8/5,13:15:00,27.2 ,66.1 ,28.1 ,25.6 ,27.8 
2003/8/5,13:30:00,27.2 ,65.2 ,28.1 ,25.7 ,27.6 
2003/8/5,13:45:00,27.2 ,65.4 ,28.1 ,25.7 ,27.6 
2003/8/5,14:00:00,27.2 ,66.5 ,28.1 ,25.7 ,27.5 
2003/8/5,14:15:00,27.2 ,66.2 ,28.2 ,25.7 ,27.5 
2003/8/5,14:30:00,27.2 ,66.6 ,28.2 ,25.8 ,27.4 
2003/8/5,14:45:00,27.2 ,65.9 ,28.3 ,25.8 ,27.4 
2003/8/5,15:00:00,27.1 ,65.1 ,28.3 ,25.8 ,27.4 
2003/8/5,15:15:00,27.2 ,65.8 ,28.3 ,25.9 ,27.3 
2003/8/5,15:30:00,27.2 ,65.5 ,28.3 ,26.0 ,27.4 
2003/8/5,15:45:00,27.2 ,64.9 ,28.3 ,26.0 ,27.4 
2003/8/5,16:00:00,27.1 ,63.6 ,28.3 ,25.8 ,27.3 
2003/8/5,16:15:00,27.1 ,63.4 ,28.2 ,25.9 ,27.2 
2003/8/5,16:30:00,27.1 ,64.1 ,28.2 ,25.9 ,27.2 
2003/8/5,16:45:00,27.1 ,63.7 ,28.1 ,25.9 ,27.2 
2003/8/5,17:00:00,27.1 ,64.1 ,28.0 ,25.9 ,27.2 
2003/8/5,17:15:00,27.1 ,63.3 ,28.0 ,25.9 ,27.2 
2003/8/5,17:30:00,27.0 ,62.6 ,27.9 ,26.0 ,27.1 
2003/8/5,17:45:00,27.0 ,63.4 ,27.8 ,26.0 ,27.1 
2003/8/5,18:00:00,27.0 ,62.9 ,27.7 ,26.0 ,27.1 
2003/8/5,18:15:00,26.9 ,62.0 ,27.6 ,26.0 ,27.0 
2003/8/5,18:30:00,26.9 ,63.1 ,27.6 ,25.9 ,27.9 
2003/8/5,18:45:00,27.0 ,65.7 ,27.5 ,26.0 ,28.5 
2003/8/5,19:00:00,27.1 ,64.5 ,27.5 ,26.0 ,28.0 
2003/8/5,19:15:00,27.1 ,64.3 ,27.5 ,26.0 ,27.8 
2003/8/5,19:30:00,27.2 ,64.4 ,27.5 ,26.0 ,27.6 
2003/8/5,19:45:00,27.2 ,63.8 ,27.5 ,26.0 ,27.5 
2003/8/5,20:00:00,27.3 ,65.1 ,27.7 ,25.4 ,27.4 
2003/8/5,20:15:00,27.5 ,66.0 ,27.8 ,25.5 ,27.6 
2003/8/5,20:30:00,27.7 ,67.2 ,27.9 ,25.5 ,27.7 
2003/8/5,20:45:00,27.9 ,68.0 ,27.8 ,25.5 ,27.7 
2003/8/5,21:00:00,27.9 ,68.0 ,27.9 ,25.6 ,27.8 
2003/8/5,21:15:00,28.0 ,67.7 ,27.8 ,25.6 ,27.7 
2003/8/5,21:30:00,28.0 ,68.4 ,27.8 ,25.6 ,27.7 
2003/8/5,21:45:00,27.9 ,65.4 ,27.7 ,25.7 ,27.8 
2003/8/5,22:00:00,27.5 ,63.8 ,27.7 ,25.7 ,27.6 
2003/8/5,22:15:00,27.4 ,65.3 ,27.6 ,25.7 ,27.3 
2003/8/5,22:30:00,27.6 ,66.7 ,27.6 ,25.8 ,27.4 
2003/8/5,22:45:00,27.7 ,67.7 ,27.6 ,25.8 ,27.4 
2003/8/5,23:00:00,27.8 ,68.1 ,27.6 ,25.8 ,27.4 
2003/8/5,23:15:00,27.7 ,67.7 ,27.6 ,25.9 ,27.4 
2003/8/5,23:30:00,27.7 ,68.9 ,27.6 ,25.9 ,27.4 
2003/8/5,23:45:00,27.7 ,68.5 ,27.6 ,25.9 ,27.3 
2003/8/6,0:00:00,27.7 ,68.2 ,27.6 ,25.9 ,27.2 
2003/8/6,0:15:00,27.7 ,68.4 ,27.5 ,25.9 ,27.1 
2003/8/6,0:30:00,27.6 ,68.5 ,27.5 ,26.0 ,27.1 
2003/8/6,0:45:00,27.6 ,68.4 ,27.5 ,26.0 ,27.1 
2003/8/6,1:00:00,27.6 ,68.5 ,27.5 ,26.0 ,27.1 
2003/8/6,1:15:00,27.6 ,68.9 ,27.5 ,26.1 ,27.0 
2003/8/6,1:30:00,27.6 ,68.9 ,27.5 ,26.1 ,27.0 
2003/8/6,1:45:00,27.5 ,68.9 ,27.5 ,26.1 ,27.0 
2003/8/6,2:00:00,27.5 ,68.9 ,27.4 ,26.1 ,27.0 
2003/8/6,2:15:00,27.5 ,69.0 ,27.4 ,26.1 ,26.9 
2003/8/6,2:30:00,27.5 ,68.9 ,27.4 ,26.1 ,26.9 
2003/8/6,2:45:00,27.4 ,69.0 ,27.4 ,26.2 ,26.9 
2003/8/6,3:00:00,27.4 ,69.4 ,27.4 ,26.2 ,26.9 